Home   Weather   Bushmills   Past weeks
Flag for United Kingdom

Past Weather in Bushmills, Northern Ireland, United Kingdom — Yesterday and Last 2 Weeks

Now
56 °F

Refreshingly cool.


Feels Like: 52 °F
Forecast: 56 / 44 °F
Wind: 16 mph from South

Location: Castlederg

Current Time: Apr 7, 2020 at 3:38:01 pm

Latest Report: Apr 7, 2020 at 2:00 pm


Visibility: 22 mi

Pressure: 30.24 "Hg

Humidity: 53%

Dew Point: 39 °F

Location of BushmillsLocation

Past Weather in Bushmills — Graph

°F

Bushmills Temperature Yesterday

Maximum temperature yesterday: 53 °F (at 1:00 pm)
Minimum temperature yesterday: 40 °F (at 11:00 pm)
Average temperature yesterday: 48 °F

High & Low Weather Summary for the Past Weeks

 TemperatureHumidityPressure
High56 °F (Apr 5, 2:00 pm)100% (Mar 27, 8:00 am)31.02 "Hg (Mar 27, 8:00 am)
Low28 °F (Mar 29, 8:00 am)49% (Mar 29, 3:00 pm)28.05 "Hg (Mar 29, 10:00 am)
Average45 °F79%30.22 "Hg
* Reported Mar 23 1:00 pm — Apr 7 2:00 pm, Bushmills. Weather by CustomWeather, © 2020

Note: Actual official high and low records may vary slightly from our data, if they occured in-between our weather recording intervals... More about our weather records

Bushmills Weather History for the Previous 24 Hours

Scroll right to see more
 ConditionsComfort  
Time TempWeatherWind HumidityBarometerVisibility
2:00 pm
Tue, Apr 7
56 °FRefreshingly cool.16 mph53%30.24 "Hg22 mi
1:00 pm53 °FCool.15 mph62%30.25 "Hg22 mi
12:00 pm52 °FCool.16 mph62%30.27 "Hg14 mi
11:00 am50 °FCool.15 mph70%30.27 "Hg9 mi
10:00 am48 °FCool.12 mph77%30.28 "Hg13 mi
9:00 am42 °FQuite cool.5 mph90%30.29 "Hg11 mi
8:00 am38 °FChilly.5 mph97%30.28 "Hg9 mi
7:00 am34 °FFog.5 mph95%30.27 "Hg6 mi
6:00 am36 °FChilly.2 mph95%30.27 "Hg7 mi
5:00 am37 °FChilly.3 mph94%30.27 "Hg9 mi
4:00 am37 °FChilly.1 mph94%30.27 "Hg9 mi
3:00 am36 °FChilly.1 mph95%30.26 "Hg11 mi
2:00 am35 °FChilly.2 mph91%30.25 "Hg13 mi
1:00 am37 °FChilly.1 mph87%30.23 "Hg11 mi
12:00 am40 °FChilly.1 mph81%30.21 "Hg14 mi
11:00 pm
Mon, Apr 6
40 °FChilly.1 mph81%30.19 "Hg14 mi
10:00 pm42 °FQuite cool.5 mph81%30.17 "Hg18 mi
9:00 pm42 °FQuite cool.5 mph79%30.14 "Hg16 mi
8:00 pm47 °FCool.8 mph71%30.11 "Hg18 mi
5:00 pm51 °FCool.16 mph61%30.03 "Hg12 mi
4:00 pm52 °FCool.18 mph59%30.00 "Hg17 mi
3:00 pm52 °FCool.17 mph60%29.96 "Hg12 mi
Weather by CustomWeather, © 2020

See weather overview

Advertising